GEFSCGP_850_meantemp_348.txt.gz
Temperature
23 24 23 23 23 23 24 23 23 23 23 23 22 23 23 22 21 21 21 20 20 19 19 18 18 18 18 18 18 18 17 17 17 17 17 17 17 16 16 16 16 16 16 16
23 23 23 23 23 23 23 23 23 23 22 22 22 22 23 22 21 21 21 20 20 19 19 18 18 18 18 17 17 17 17 17 17 17 17 17 17 16 16 16 16 16 16 16
23 23 23 22 22 22 23 23 23 22 22 22 22 22 22 22 21 20 20 20 19 19 19 18 17 17 17 17 17 17 17 17 17 17 17 16 16 16 16 16 16 16 16 16
22 22 22 22 22 22 22 22 22 22 22 22 22 22 22 22 21 21 20 19 19 18 18 18 17 17 17 17 17 17 17 17 17 17 16 16 16 16 16 16 16 16 16 16
21 21 22 22 22 22 22 22 22 22 22 22 22 22 22 22 21 21 21 19 19 18 18 17 17 16 16 16 16 16 17 17 17 17 16 16 16 16 16 16 16 16 15 15
22 21 21 22 22 22 21 22 22 22 22 21 22 22 21 22 21 21 20 19 18 18 17 17 16 16 16 16 16 16 16 16 16 16 16 16 16 16 16 16 16 15 15 15
21 21 21 21 21 21 22 22 21 21 21 21 21 21 21 21 21 20 20 19 18 17 17 16 16 15 15 16 16 16 16 16 16 16 16 15 15 15 15 15 15 15 15 15
21 21 21 21 21 21 21 22 21 21 21 21 21 21 21 21 20 19 19 18 18 17 16 16 15 15 15 15 15 15 15 15 15 15 15 15 15 15 15 15 15 15 15 15
20 20 20 20 20 21 21 21 22 21 21 21 21 21 21 20 20 19 18 18 17 16 16 15 15 15 15 15 15 15 15 15 15 15 15 15 15 15 15 15 14 14 14 14
20 20 20 19 20 19 21 21 21 20 20 20 21 21 21 20 19 19 18 18 17 16 16 15 15 14 14 14 14 14 14 14 14 14 14 14 14 14 14 14 14 14 14 14
19 20 19 19 20 20 19 20 20 20 20 20 20 21 20 19 19 19 18 17 16 16 15 15 14 14 14 14 14 14 14 14 14 14 14 14 14 14 14 14 14 14 13 13
19 19 19 19 19 19 20 20 20 19 20 20 19 20 19 19 18 18 17 16 16 15 14 14 14 14 14 14 14 14 13 13 13 13 13 13 13 13 13 13 13 13 13 13
18 19 19 19 19 18 19 19 19 19 20 19 19 19 18 18 18 17 16 16 15 14 14 14 13 13 13 13 13 13 13 13 13 13 13 13 13 13 13 13 13 13 12 12
17 19 19 19 19 19 18 18 18 19 19 19 19 19 18 18 17 16 16 15 14 14 14 13 13 13 13 13 13 13 13 13 12 12 12 12 12 12 12 12 12 12 12 12
17 18 18 18 18 18 18 18 18 18 18 18 19 18 18 17 16 16 15 14 14 13 13 13 13 13 12 12 12 12 12 12 12 12 12 12 12 12 12 12 12 12 12 12
17 17 17 17 17 17 17 17 17 17 17 17 17 17 17 16 15 15 14 14 13 13 12 12 12 12 12 12 12 12 12 12 12 12 11 11 11 11 11 11 11 11 11 11
17 17 17 17 17 16 16 17 17 16 16 16 16 16 16 15 14 14 13 13 12 12 12 11 11 11 11 12 12 11 11 11 11 11 11 11 11 11 11 11 11 11 11 11
16 16 16 16 16 16 16 16 16 15 15 15 15 15 14 14 13 12 12 12 11 11 11 11 11 11 11 11 11 11 11 11 11 11 11 11 10 10 10 10 10 10 10 10
15 16 16 16 16 16 16 15 14 15 15 15 14 14 13 12 13 13 11 10 10 10 10 10 10 10 10 10 10 10 10 10 10 10 10 10 10 10 10 10 9 9 9 10
14 15 16 15 15 15 15 14 13 15 15 14 13 13 13 12 14 13 11 10 10 10 9 10 10 10 10 10 10 10 10 10 10 9 9 9 9 9 9 9 9 9 9 9
14 14 14 15 15 15 14 13 13 14 14 13 13 12 12 12 12 11 10 9 9 9 9 9 9 9 9 9 9 9 9 9 9 9 9 9 8 8 8 8 8 8 8 8
14 14 14 14 14 14 13 13 13 14 13 12 12 11 11 11 10 9 9 9 8 8 8 8 8 8 8 8 8 8 8 8 8 8 8 8 8 8 8 8 8 7 7 8
13 14 14 14 14 13 12 12 12 11 11 11 11 10 10 10 9 9 8 8 8 8 8 8 8 8 7 7 7 7 7 7 7 7 7 7 7 7 7 7 7 7 7 7
12 11 12 13 13 12 11 11 10 10 10 10 10 9 9 9 9 8 8 7 7 7 7 7 7 7 7 6 6 6 6 6 6 6 6 6 6 6 6 6 6 6 6 6
12 11 12 12 12 11 11 10 10 10 10 9 9 9 9 8 8 8 7 7 6 6 6 6 6 6 6 6 6 6 6 6 6 5 5 5 5 5 5 5 5 5 5 5
11 11 11 12 12 12 11 10 9 9 9 9 9 8 8 8 8 7 7 6 6 6 6 6 6 6 5 5 5 5 5 5 5 5 5 5 5 5 5 5 5 5 5 5

GEFSCGP_850_meantemp_354.txt.gz
Temperature
25 24 23 24 25 25 25 25 24 25 26 25 24 24 24 24 24 23 23 23 22 21 21 20 20 20 19 19 19 19 18 18 18 18 18 18 17 17 17 17 17 17 17 16
24 23 25 25 25 25 24 24 24 24 25 25 24 23 24 24 23 23 23 22 22 21 20 20 19 19 19 18 18 18 18 18 18 18 18 17 17 17 17 17 17 16 16 16
23 24 25 25 25 24 24 23 23 23 24 24 23 22 23 23 23 23 22 22 22 21 20 19 19 18 18 18 18 18 18 18 17 17 17 17 17 17 17 16 16 16 16 16
24 24 25 24 24 24 23 24 24 24 23 22 23 21 22 23 22 22 22 22 21 21 20 19 19 18 18 18 18 17 17 17 17 17 17 17 17 17 16 16 16 16 16 16
23 24 24 23 24 24 24 24 24 24 23 22 23 22 22 23 22 22 22 22 21 21 20 19 19 18 18 17 17 17 17 17 17 17 17 17 17 16 16 16 16 16 16 16
23 24 24 24 24 24 24 24 24 23 22 21 22 22 21 22 22 22 22 22 21 20 20 19 19 18 17 17 17 17 17 17 16 16 16 16 16 16 16 16 15 15 15 15
22 23 24 24 23 23 23 22 21 21 20 21 23 22 21 22 23 22 21 21 21 20 19 19 18 17 17 17 16 16 16 16 16 16 16 16 16 16 16 15 15 15 15 15
22 22 23 23 23 22 23 22 20 20 20 22 23 22 21 22 22 22 21 21 20 19 19 18 18 17 17 16 16 16 16 16 16 15 15 15 15 15 15 15 15 15 15 15
21 21 23 23 23 23 22 22 23 21 21 21 22 22 22 22 21 21 21 20 20 19 18 18 17 17 16 16 15 15 15 15 15 15 15 15 15 15 15 15 15 15 14 14
21 21 22 22 22 22 22 22 21 21 20 20 21 21 20 20 20 20 20 20 19 18 18 17 16 16 16 15 15 15 15 15 14 14 14 14 14 14 14 14 14 14 14 14
22 21 21 21 21 21 21 21 21 21 21 20 20 20 21 20 20 20 20 19 18 17 17 17 16 15 15 15 15 15 15 14 14 14 14 14 14 14 14 14 14 14 14 14
21 21 20 21 22 22 22 22 21 20 20 21 20 19 21 20 20 20 19 18 18 17 16 16 15 15 15 15 14 14 14 14 14 14 13 13 14 14 13 13 13 13 13 13
20 20 19 20 20 21 21 21 21 21 20 20 19 18 20 20 20 19 18 18 17 16 16 15 15 14 14 14 14 14 14 14 14 13 13 13 13 13 13 13 13 13 13 13
19 19 19 19 20 20 20 20 21 20 19 19 19 18 19 19 19 18 18 17 16 16 15 15 14 14 14 14 14 13 13 13 13 13 13 13 12 12 12 12 12 12 12 12
19 19 20 20 21 20 20 20 20 19 19 18 19 18 18 18 18 18 17 16 16 15 14 14 14 13 13 13 13 13 13 13 13 12 12 12 12 12 12 12 12 12 12 12
19 18 19 19 20 20 19 19 19 19 19 19 18 18 18 18 17 17 16 15 15 14 14 13 13 13 13 13 12 12 12 12 12 12 12 12 11 11 11 11 11 11 11 11
18 18 18 18 19 19 17 18 19 19 18 18 17 17 17 17 16 16 15 14 14 13 13 13 12 12 12 12 12 12 12 12 11 11 11 11 11 11 11 10 10 10 10 10
18 18 17 17 18 16 17 19 19 18 18 18 17 17 16 16 15 14 14 13 13 12 12 12 11 11 11 11 11 11 11 11 11 11 11 10 10 10 10 10 10 10 10 10
18 17 17 17 16 17 17 18 18 17 16 17 17 16 16 15 14 13 13 12 12 11 11 11 11 11 11 11 11 11 11 10 10 10 10 10 10 10 10 9 9 9 9 9
17 17 16 16 16 16 16 17 17 17 15 16 16 16 15 15 13 13 12 12 11 11 10 10 10 10 10 10 10 10 10 10 10 9 9 9 9 9 9 9 9 9 8 8
16 16 15 15 15 15 16 16 16 15 14 15 15 15 14 14 13 13 12 11 11 10 10 9 9 9 9 9 10 10 9 9 9 9 9 9 9 9 9 8 8 8 8 8
15 15 15 15 14 14 15 15 15 14 15 15 14 14 13 13 12 12 11 11 10 10 9 9 9 9 9 9 9 9 9 8 8 8 8 8 8 8 8 8 8 8 8 8
15 15 14 14 14 15 15 15 14 14 14 14 13 13 12 12 11 11 10 10 9 9 9 8 8 8 8 8 8 8 8 8 8 8 7 7 7 7 7 7 7 7 7 7
15 15 15 14 15 14 14 14 14 13 13 13 12 12 11 11 10 10 10 9 9 8 8 8 8 7 7 7 7 7 7 7 7 7 7 6 6 6 6 6 6 6 6 6
14 14 14 14 14 14 13 13 13 12 12 12 11 11 11 10 10 9 9 8 8 8 7 7 7 7 6 6 6 6 6 6 6 6 6 6 5 5 5 5 5 5 5 5
14 13 13 13 13 13 12 12 12 11 11 11 11 10 10 10 9 9 8 8 7 7 7 6 6 6 6 6 5 5 5 5 5 5 5 5 5 5 5 5 5 5 5 5

GEFSCGP_850_meantemp_360.txt.gz
Temperature
21 18 18 18 19 19 20 19 19 19 20 20 19 18 18 19 19 19 19 19 18 18 19 18 18 18 18 18 18 18 18 18 17 17 17 17 17 16 16 16 16 16 16 16
18 18 19 20 20 20 20 19 19 20 21 20 18 18 18 18 19 19 19 18 18 18 18 18 18 18 18 18 18 17 17 17 17 17 17 17 16 16 16 16 16 16 16 16
18 19 20 21 20 20 19 19 19 19 20 20 19 18 18 18 19 19 19 19 19 18 18 18 18 18 18 18 17 17 17 17 17 17 17 16 16 16 16 16 16 16 16 16
18 19 20 20 20 19 19 20 20 20 18 17 18 16 17 17 17 17 18 18 18 18 18 18 18 18 18 17 17 17 17 17 17 17 17 16 16 16 16 16 16 16 16 16
18 19 19 19 20 20 19 20 19 19 18 17 17 16 16 16 16 16 17 18 18 18 18 18 18 18 18 17 17 17 17 17 17 16 16 16 16 16 16 16 16 16 15 15
19 20 20 19 20 20 20 19 18 16 16 16 17 16 15 15 16 17 17 17 17 18 18 18 17 17 17 17 17 16 16 16 16 16 16 16 16 16 16 15 15 15 15 15
18 19 20 20 19 19 18 16 16 16 15 15 16 16 15 16 17 17 16 17 17 17 17 17 17 17 17 16 16 16 16 16 16 16 16 15 15 15 15 15 15 15 15 15
17 17 19 19 19 18 17 16 15 16 15 15 16 16 16 17 17 17 17 17 17 17 17 16 16 16 16 16 16 16 16 15 15 15 15 15 15 15 15 15 15 15 15 15
16 16 18 19 19 18 18 16 16 15 16 15 15 16 16 17 16 16 16 16 16 16 16 16 16 16 16 16 15 15 15 15 15 15 15 14 15 14 14 14 14 14 14 14
16 16 18 19 19 19 18 17 14 15 15 15 15 15 15 15 15 15 15 15 15 15 15 16 16 15 15 15 15 15 15 15 14 14 14 14 14 14 14 14 14 13 14 14
16 15 17 17 18 17 18 17 15 14 14 14 15 15 16 15 15 14 15 15 15 15 15 15 15 15 15 15 14 14 14 14 14 14 14 14 14 13 13 13 13 13 13 13
15 14 14 16 17 18 17 17 15 15 14 14 13 14 16 15 15 15 15 15 15 15 15 15 14 14 14 14 14 14 14 14 14 14 13 13 13 13 13 13 13 13 13 13
15 13 14 15 15 16 17 17 16 14 13 13 13 14 15 14 14 14 14 14 14 14 14 14 14 14 14 14 14 14 14 13 13 13 13 13 13 13 12 12 12 12 12 12
15 13 13 14 14 15 16 16 16 14 13 13 13 14 14 14 13 13 14 14 13 13 13 13 13 13 13 13 13 13 13 13 13 13 13 13 12 12 12 12 12 12 11 11
14 13 14 14 15 15 15 16 15 15 14 13 14 14 14 13 13 13 13 13 13 12 12 13 13 12 12 12 12 12 12 12 12 12 12 12 12 12 11 11 11 11 11 11
12 13 14 14 15 15 15 15 15 14 14 14 14 13 13 13 13 13 12 12 12 12 12 12 12 12 12 12 12 12 12 12 12 11 11 11 11 11 11 11 10 10 10 10
12 12 13 12 13 14 13 14 14 14 14 13 13 12 12 12 12 12 12 12 11 11 11 11 11 11 11 11 11 11 11 11 11 11 11 11 11 10 10 10 10 10 10 10
12 12 11 12 13 13 13 13 14 13 13 13 13 12 12 12 12 12 12 12 11 11 11 11 11 11 11 11 11 11 11 10 10 10 10 10 10 10 10 10 10 9 9 9
12 12 11 11 11 12 13 13 13 13 12 12 12 12 12 12 11 11 11 11 11 11 11 10 10 10 10 10 10 10 10 10 10 10 10 9 9 9 9 9 9 9 9 9
11 11 10 10 11 11 12 13 14 13 12 12 12 11 11 11 9 9 11 11 11 10 10 10 10 10 10 10 10 10 9 9 9 9 9 9 9 9 9 8 8 8 8 8
11 10 10 10 10 11 11 13 13 12 11 12 11 11 11 10 10 11 10 10 10 10 10 9 9 9 9 9 9 9 9 9 9 8 8 8 8 8 8 8 8 8 8 8
10 10 9 9 10 10 12 12 11 11 12 12 11 11 11 11 11 10 10 10 9 9 9 9 9 9 9 9 8 8 8 8 8 8 8 8 8 8 7 7 7 7 7 7
10 10 9 9 10 11 12 12 12 12 12 12 11 11 11 10 10 10 9 9 9 9 8 8 8 8 8 8 8 8 8 7 7 7 7 7 7 7 7 7 7 7 6 6
9 10 9 9 9 11 11 12 12 12 12 11 11 11 10 10 9 9 9 8 8 8 8 8 8 7 7 7 7 7 7 7 7 7 7 6 6 6 6 6 6 6 6 6
9 9 8 9 9 10 11 11 11 11 11 11 10 10 10 9 9 9 8 8 8 7 7 7 7 7 7 7 7 6 6 6 6 6 6 5 5 5 5 5 5 5 5 5
8 9 8 9 10 9 10 11 11 11 10 10 10 10 9 9 9 8 8 8 7 7 7 7 6 6 6 6 6 6 6 5 5 5 5 5 5 5 5 4 4 4 4 4

GEFSCGP_850_meantemp_366.txt.gz
Temperature
19 16 16 17 17 18 17 17 17 17 18 17 17 16 16 16 16 16 16 16 17 17 17 17 17 17 17 17 17 17 17 17 17 16 16 16 16 16 16 16 15 16 16 15
16 17 17 18 18 17 17 17 17 17 18 17 16 16 16 16 16 16 16 16 16 17 17 17 17 17 17 17 17 17 17 16 16 16 16 16 16 16 16 15 15 15 15 15
17 17 18 18 17 17 17 17 17 17 17 17 17 16 16 16 16 16 16 16 16 17 17 17 17 17 17 17 17 16 16 16 16 16 16 16 16 15 15 15 15 15 15 15
17 17 18 17 17 17 17 17 17 17 16 15 16 15 15 15 15 14 15 15 15 16 16 17 17 17 17 17 16 16 16 16 16 16 16 16 15 15 15 15 15 15 15 15
17 17 17 17 17 17 17 17 16 16 15 15 15 15 14 14 15 14 14 15 15 16 16 16 17 17 17 16 16 16 16 16 16 15 15 15 15 15 15 15 15 15 15 15
17 17 17 17 17 17 16 16 15 14 14 14 15 14 14 13 14 14 14 15 15 16 16 16 16 16 16 16 16 16 15 15 15 15 15 15 15 15 15 15 15 14 14 14
16 17 17 18 17 17 16 15 14 14 13 14 14 14 14 14 14 14 14 15 15 15 15 16 16 16 16 16 15 15 15 15 15 15 15 14 14 14 14 14 14 14 14 14
15 15 17 17 17 16 15 15 14 15 14 13 14 14 14 14 14 15 15 15 15 15 15 15 15 15 15 15 15 15 15 15 14 14 14 14 14 14 14 14 14 14 14 13
15 15 16 17 17 16 15 14 14 13 14 13 13 13 14 14 14 14 14 14 14 15 15 15 15 15 15 15 15 15 14 14 14 14 14 14 14 14 14 14 14 13 13 13
14 15 16 16 16 16 15 13 12 13 13 13 14 13 13 14 13 13 13 13 14 14 14 14 14 14 14 14 14 14 14 14 14 14 13 13 13 13 13 13 13 13 13 13
14 14 15 15 16 15 14 14 12 11 12 13 13 13 14 13 13 13 12 13 14 14 14 14 14 14 14 14 14 14 14 14 13 13 13 13 13 13 13 13 13 12 12 12
13 12 13 14 15 15 15 14 12 13 12 11 12 13 14 12 12 12 12 13 13 13 13 13 13 13 13 13 13 13 13 13 13 13 13 13 12 12 12 12 12 12 12 12
13 12 13 14 14 14 14 13 13 11 11 10 12 13 13 12 12 12 12 12 13 13 13 13 13 13 13 13 13 13 13 13 13 13 12 12 12 12 12 12 11 11 11 11
13 11 12 13 13 13 13 13 12 12 11 11 11 12 12 12 11 11 12 12 12 12 12 12 12 12 12 12 12 12 12 12 12 12 12 12 12 11 11 11 11 11 11 10
12 12 12 12 13 13 13 13 12 12 12 12 12 12 12 12 11 11 11 12 11 11 11 11 11 11 12 12 12 12 12 12 12 11 11 11 11 11 11 10 10 10 10 10
11 12 12 12 12 12 12 12 12 12 12 12 12 11 11 11 11 11 11 11 11 11 11 11 11 11 11 11 11 11 11 11 11 11 11 11 10 10 10 10 10 9 9 9
10 11 11 11 11 12 12 12 12 12 11 11 11 11 11 10 10 11 11 11 11 11 11 11 11 11 11 11 11 11 11 11 10 10 10 10 10 10 9 9 9 9 9 9
10 10 9 10 11 12 12 11 12 12 11 11 10 10 10 11 11 11 11 11 11 10 10 10 10 10 10 10 10 10 10 10 10 10 10 9 9 9 9 9 9 9 8 8
9 10 9 9 10 10 11 11 11 11 11 10 10 10 10 10 10 10 11 11 11 10 10 10 9 9 9 10 10 10 10 10 9 9 9 9 9 9 8 8 8 8 8 8
8 9 9 9 10 11 11 12 12 11 11 11 10 9 9 9 8 9 11 10 10 10 9 9 9 9 9 9 9 9 9 9 9 9 8 8 8 8 8 8 8 8 7 7
9 8 8 9 9 10 10 11 11 11 11 11 11 10 10 9 10 10 10 10 10 9 9 9 8 8 8 8 8 8 8 8 8 8 8 8 8 7 7 7 7 7 7 7
9 8 8 8 9 10 10 10 10 10 11 11 11 11 10 10 10 10 10 9 9 9 8 8 8 8 8 7 8 8 8 8 8 7 7 7 7 7 7 7 6 6 6 6
8 8 8 8 9 10 10 11 11 11 11 11 11 11 10 10 10 9 9 9 8 8 8 8 8 7 7 7 7 7 7 7 7 7 7 7 6 6 6 6 6 6 5 5
7 7 7 7 8 9 10 11 11 11 11 11 11 11 10 10 9 9 8 8 8 8 7 7 7 7 7 7 7 7 7 6 6 6 6 6 6 6 5 5 5 5 5 5
7 7 7 7 7 9 10 11 11 11 11 10 10 10 10 9 9 8 8 8 8 7 7 7 7 6 6 6 6 6 6 6 6 6 5 5 5 5 5 5 5 4 4 4
6 7 7 8 9 8 10 10 10 10 10 10 9 9 9 9 8 8 8 7 7 7 7 6 6 6 6 6 6 6 5 5 5 5 5 5 5 4 4 4 4 4 3 3

GEFSCGP_850_meantemp_372.txt.gz
Temperature
22 23 23 22 23 23 22 22 22 22 22 21 21 21 21 20 20 19 19 19 18 18 17 17 17 16 16 16 16 16 16 16 16 16 15 15 15 15 15 15 15 15 15 15
23 22 22 22 22 22 22 22 22 21 21 21 21 21 21 21 20 19 19 19 18 18 17 16 16 16 16 16 16 16 16 16 16 15 15 15 15 15 15 15 15 15 15 15
22 22 22 22 21 21 22 21 21 21 21 21 21 21 21 21 20 19 18 18 18 17 17 16 16 16 16 16 16 16 16 15 15 15 15 15 15 15 15 15 15 15 15 15
22 21 21 21 21 21 21 21 21 21 21 21 21 21 21 21 20 19 19 18 17 17 16 16 16 16 16 16 15 15 15 15 15 15 15 15 14 14 14 14 14 14 14 14
21 21 21 21 21 21 21 20 21 21 21 21 21 21 22 21 20 20 19 18 17 17 16 16 15 15 15 15 15 15 15 15 15 15 15 14 14 14 14 14 14 14 14 14
21 21 21 21 20 20 20 21 21 21 21 20 21 20 21 21 20 20 19 18 17 16 16 15 15 15 15 15 15 15 15 15 15 14 14 14 14 14 14 14 14 14 14 14
21 21 20 20 20 20 21 21 21 21 20 21 20 20 20 20 20 19 19 18 17 16 15 15 15 14 14 15 15 14 14 14 14 14 14 14 14 13 13 13 13 13 13 13
21 20 20 20 21 21 21 21 20 20 20 21 20 20 20 19 18 18 18 17 16 16 15 14 14 14 14 14 14 14 14 14 14 14 14 13 13 13 13 13 13 13 13 13
20 20 20 19 20 21 20 21 21 20 20 20 21 21 20 19 18 18 17 17 16 15 14 14 14 14 13 14 14 14 13 13 13 13 13 13 13 13 13 13 12 12 12 12
20 20 19 19 19 19 20 20 20 20 19 19 20 20 20 19 18 18 17 16 15 15 14 14 13 13 13 13 13 13 13 13 13 13 13 13 13 12 12 12 12 12 12 12
20 20 19 19 19 20 19 19 20 20 20 19 19 20 20 19 18 18 17 16 15 14 13 13 13 12 12 12 13 13 13 13 13 12 12 12 12 12 12 12 12 12 11 11
19 19 19 19 19 18 19 19 19 19 19 19 19 20 19 18 18 17 16 15 14 13 13 12 12 12 12 12 12 12 12 12 12 12 12 12 12 11 11 11 11 11 11 11
18 19 19 19 18 18 18 18 18 19 19 19 18 19 18 18 17 16 15 14 13 13 12 12 12 11 11 11 11 11 12 12 12 12 12 11 11 11 11 11 11 11 10 10
17 19 19 19 19 18 18 17 17 18 18 18 19 19 18 17 17 16 15 14 13 12 12 11 11 11 11 11 11 11 11 11 11 11 11 11 11 11 10 10 10 10 10 10
18 18 18 18 17 17 17 17 17 17 18 18 18 18 18 17 16 15 14 13 13 12 11 11 10 10 10 10 10 10 10 11 11 10 11 11 10 10 10 10 10 10 10 9
17 17 17 17 16 16 16 17 17 17 17 17 17 17 17 16 15 14 14 13 13 12 11 10 10 10 10 10 10 10 10 10 10 10 10 10 10 10 10 10 10 9 9 9
16 17 17 17 16 16 16 17 17 16 16 16 16 17 16 15 15 14 13 13 12 12 10 10 9 9 9 10 10 9 9 10 10 10 10 9 9 9 9 9 9 9 9 9
16 16 16 16 16 15 17 16 16 16 16 16 16 16 15 14 14 13 12 12 11 11 10 9 9 9 9 9 9 9 9 9 9 9 9 9 9 9 9 9 8 8 8 8
15 16 16 16 16 16 16 15 15 15 15 15 15 15 14 13 13 13 12 11 11 10 10 9 9 8 9 9 8 9 9 8 8 8 8 8 8 8 8 8 8 8 8 7
14 15 15 15 15 15 16 15 14 15 15 15 14 14 13 13 14 14 11 10 10 10 9 9 8 8 8 8 8 8 8 8 8 8 8 8 8 7 7 7 7 7 7 7
14 14 15 15 15 16 15 13 14 14 15 14 13 13 13 13 13 11 10 9 9 9 9 9 8 8 7 7 7 7 7 7 7 7 7 7 7 7 7 7 7 7 6 6
15 15 14 15 14 15 13 13 14 14 13 12 12 12 12 11 10 10 9 9 9 9 8 8 8 7 7 7 7 7 7 7 7 7 7 7 6 6 6 6 6 6 6 6
14 15 15 15 15 14 12 13 12 12 12 12 11 11 10 10 9 9 9 8 8 8 8 8 7 7 7 7 6 6 6 6 6 6 6 6 6 6 6 6 5 5 5 5
13 12 13 13 14 13 11 11 11 11 11 10 10 10 10 9 9 8 8 8 8 8 7 7 7 6 6 6 6 6 6 6 6 6 6 5 5 5 5 5 5 5 5 4
13 12 12 13 13 12 11 10 10 10 10 10 9 9 9 8 8 8 8 7 7 7 7 7 6 6 6 6 6 5 5 5 5 5 5 5 5 5 4 4 4 4 4 4
12 12 12 13 12 12 12 10 9 9 9 9 9 8 8 8 8 7 7 7 7 6 6 6 6 6 6 5 5 5 5 5 5 5 4 4 4 4 4 4 4 3 3 3

GEFSCGP_850_meantemp_378.txt.gz
Temperature
25 25 24 24 24 24 24 24 23 24 24 23 23 22 23 22 22 22 22 21 20 20 19 19 18 18 18 18 18 17 17 17 17 16 16 16 16 16 15 15 15 15 15 15
25 24 25 25 25 24 24 23 23 23 24 23 23 23 23 22 22 21 21 21 20 20 19 18 18 18 17 17 17 17 17 16 16 16 16 16 15 15 15 15 15 15 15 15
24 24 25 25 24 24 24 23 23 23 23 23 23 22 22 22 22 21 21 21 20 19 19 18 18 17 17 17 17 17 16 16 16 16 16 15 15 15 15 15 15 15 15 15
24 25 24 24 24 24 23 23 23 23 22 22 22 21 22 22 21 21 21 21 20 19 19 18 17 17 17 16 16 16 16 16 16 16 15 15 15 15 14 14 14 14 14 14
23 24 24 23 23 23 23 23 23 23 22 22 22 21 21 22 21 21 21 20 20 19 18 17 17 16 16 16 16 16 16 16 16 15 15 15 15 14 14 14 14 14 14 14
24 24 24 24 24 24 23 23 23 23 22 21 22 22 20 21 21 21 21 20 20 19 18 17 16 16 15 15 15 15 15 15 15 15 15 14 14 14 14 14 13 13 13 13
23 23 24 23 23 23 23 22 21 21 20 21 23 22 20 21 22 21 21 20 19 18 18 17 16 15 15 15 15 15 15 15 15 14 14 14 14 14 13 13 13 13 13 13
22 22 23 23 22 22 22 22 20 19 20 21 22 22 21 21 21 21 20 20 19 18 17 16 16 15 15 14 14 14 14 14 14 14 14 14 13 13 13 13 13 13 13 13
22 22 23 23 23 23 22 22 22 21 21 21 21 21 20 21 20 20 20 19 18 17 17 16 15 15 14 14 14 14 14 14 14 14 13 13 13 13 13 13 13 13 12 12
22 21 22 23 22 22 22 22 22 21 20 19 20 21 20 19 19 19 19 18 18 17 16 15 15 14 14 14 13 13 13 13 13 13 13 13 13 13 13 13 13 12 12 12
22 21 21 22 21 21 21 21 21 21 21 20 19 20 21 19 19 19 19 18 17 16 15 15 14 14 14 13 13 13 13 13 13 13 13 13 12 12 12 12 12 12 12 12
21 21 20 21 22 22 22 21 21 19 19 20 19 19 21 20 19 19 18 17 16 16 15 14 14 14 13 13 12 12 12 12 12 12 12 12 12 12 12 12 12 12 11 11
20 20 19 20 20 21 21 21 21 20 19 19 19 19 20 19 19 18 18 17 16 15 14 14 13 13 12 12 12 12 12 12 12 12 12 12 12 12 11 11 11 11 11 11
19 19 19 19 20 20 20 20 20 20 18 19 19 19 19 19 18 18 17 16 16 15 14 13 13 12 12 12 11 11 11 11 11 11 11 11 11 11 11 11 11 11 11 10
19 19 20 20 20 20 20 20 20 19 19 18 19 19 18 18 17 17 17 16 15 15 14 13 12 12 12 11 11 11 11 11 11 11 11 11 11 10 10 10 10 10 10 10
19 19 19 19 20 20 20 20 20 19 19 19 19 18 18 18 17 17 16 16 15 14 14 13 12 12 11 11 11 10 10 10 10 10 10 10 10 10 10 10 10 10 10 9
19 19 18 18 19 19 18 19 19 19 19 19 17 17 18 17 17 16 15 15 14 14 13 12 12 11 11 10 10 10 10 10 9 9 9 9 9 9 9 9 9 9 9 9
18 18 17 17 18 17 18 19 19 19 18 18 18 17 17 16 16 15 14 14 14 13 12 12 11 11 11 10 10 9 9 9 9 9 9 9 9 9 8 8 9 9 9 8
19 17 17 17 16 17 18 18 18 17 17 18 17 16 16 16 15 14 14 13 13 12 12 11 11 10 10 10 9 9 9 8 8 8 8 8 8 8 8 8 8 8 8 8
18 18 17 16 16 16 17 18 18 17 16 16 16 16 15 15 13 13 13 12 12 11 11 11 10 10 10 9 9 9 8 8 8 8 7 8 8 7 7 8 7 7 7 7
16 16 16 15 16 16 16 17 17 15 15 16 15 15 14 14 13 12 12 11 11 11 10 10 10 9 9 9 9 8 8 7 7 7 7 7 7 7 7 7 7 7 7 6
16 16 16 16 15 15 16 16 15 15 15 15 14 14 13 13 12 12 11 10 10 10 9 9 9 9 8 8 8 8 7 7 7 7 7 7 7 7 6 6 6 6 6 6
17 16 16 16 15 15 15 15 15 14 14 14 13 13 12 12 11 11 10 10 9 9 9 8 8 8 8 8 7 7 7 7 6 6 6 6 6 6 6 6 6 6 6 5
16 16 16 15 15 15 15 14 14 13 13 13 12 12 11 11 10 10 9 9 9 8 8 8 7 7 7 7 7 7 6 6 6 6 6 6 6 6 6 5 5 5 5 5
15 15 15 14 15 15 14 13 13 12 12 11 11 11 10 10 9 9 9 8 8 8 7 7 7 7 7 7 6 6 6 6 6 5 5 5 5 5 5 5 5 5 5 4
15 14 14 13 14 13 13 12 12 11 11 11 10 10 9 9 9 8 8 8 8 7 7 7 7 6 6 6 6 6 5 5 5 5 5 5 5 5 4 4 4 4 4 4

GEFSCGP_850_meantemp_384.txt.gz
Temperature
21 19 18 18 19 19 19 19 18 19 20 19 18 17 17 18 18 17 17 17 17 17 17 17 17 17 17 17 17 17 17 16 16 16 16 16 16 15 15 15 15 15 15 15
18 19 20 20 20 20 19 18 18 19 19 19 18 17 17 17 17 17 17 17 17 17 17 17 17 17 17 17 17 16 16 16 16 16 15 15 15 15 15 15 15 15 14 14
19 20 21 21 20 20 19 19 18 18 19 18 18 17 17 17 17 17 17 17 17 16 16 16 16 16 16 16 16 16 16 16 16 15 15 15 15 15 15 15 14 14 14 14
19 20 21 20 20 20 19 19 19 19 17 16 18 16 16 16 16 16 16 16 16 16 16 16 16 16 16 16 16 16 15 15 15 15 15 15 15 15 14 14 14 14 14 14
19 20 20 20 20 20 19 20 19 19 17 16 16 16 15 15 15 15 15 16 16 15 15 15 15 15 15 15 15 15 15 15 15 15 14 14 14 14 14 14 14 14 14 13
19 20 20 20 20 20 19 18 18 16 15 16 16 15 15 15 15 15 15 15 15 15 15 15 15 15 15 15 15 14 14 14 14 14 14 14 14 14 14 14 13 13 13 13
18 19 20 20 19 19 18 16 15 16 15 15 16 15 15 15 16 15 15 15 15 15 15 15 14 14 14 14 14 14 14 14 14 14 14 13 13 13 13 13 13 13 13 13
17 17 19 19 19 18 18 16 15 15 15 15 16 15 15 16 16 16 16 15 15 15 15 14 14 14 14 14 14 13 14 13 13 13 13 13 13 13 13 13 13 12 12 12
16 17 19 20 20 19 18 16 16 15 15 15 15 15 16 16 15 15 15 15 15 14 14 14 14 14 14 14 13 13 13 13 13 13 13 13 13 12 12 12 12 12 12 12
17 17 18 19 19 19 18 16 14 15 15 14 15 15 14 15 15 14 14 14 14 14 14 14 14 14 13 13 13 13 13 13 12 12 12 12 12 12 12 12 12 12 12 12
16 16 16 17 17 17 17 17 15 13 14 14 14 14 16 15 15 14 14 14 14 14 14 14 14 13 13 13 13 12 12 12 12 12 12 12 12 12 11 11 11 11 11 11
15 13 14 16 17 17 17 16 15 14 14 13 13 14 15 14 14 15 15 15 14 14 14 13 13 13 13 12 12 12 12 12 12 11 11 11 11 11 11 11 11 11 11 11
15 13 14 15 15 16 17 17 16 14 13 12 13 14 14 14 14 15 14 14 14 14 13 13 13 12 12 12 12 12 12 11 11 11 11 11 11 11 11 10 10 10 10 10
15 13 13 14 14 15 16 16 16 14 13 13 13 14 14 13 13 14 14 14 13 13 13 13 12 12 12 12 11 11 11 11 11 10 10 10 10 10 10 10 10 10 10 10
14 14 14 14 15 16 16 16 16 15 14 13 14 13 13 13 13 13 13 13 13 12 12 12 12 12 11 11 11 11 10 10 10 10 10 10 10 10 10 10 9 9 9 9
12 14 14 15 15 15 15 15 15 15 15 14 14 13 13 13 13 13 13 12 12 12 12 12 11 11 11 11 10 10 10 10 9 9 9 9 9 9 9 9 9 9 9 9
12 12 13 13 14 14 14 15 15 15 15 14 13 13 12 12 12 12 12 12 12 12 11 11 11 11 11 10 10 10 9 9 9 9 9 9 9 8 8 8 8 8 8 8
12 12 11 11 13 13 14 14 14 14 14 13 13 12 12 12 12 12 12 12 11 11 11 11 11 10 10 10 10 9 9 9 8 8 8 8 8 8 8 8 8 8 8 8
12 12 11 11 12 12 13 14 14 14 13 13 12 12 12 12 11 11 12 11 11 11 11 11 10 10 10 10 9 9 9 8 8 8 8 7 7 7 7 7 7 7 7 7
11 11 10 10 12 12 13 14 15 13 12 12 12 12 11 11 9 9 11 11 11 11 10 10 10 10 9 9 9 9 8 8 8 7 7 7 7 7 7 7 7 7 7 7
11 11 10 10 11 11 12 13 14 12 12 12 12 12 12 11 10 11 11 10 10 10 10 9 9 9 9 8 8 8 8 7 7 7 7 7 7 6 6 6 6 6 6 6
11 10 10 9 10 11 12 12 12 11 13 13 12 12 12 11 11 10 10 10 9 9 9 9 9 8 8 8 8 7 7 7 7 7 6 6 6 6 6 6 6 6 6 6
10 10 9 10 10 11 13 13 13 13 12 12 12 11 11 10 10 9 9 9 9 9 8 8 8 8 7 7 7 7 7 7 6 6 6 6 6 6 6 5 5 5 5 5
10 10 9 9 10 11 12 12 12 12 12 12 12 11 11 10 9 9 9 9 8 8 8 8 8 7 7 7 7 6 6 6 6 6 6 6 5 5 5 5 5 5 5 5
9 9 9 9 9 10 11 11 11 12 12 11 11 10 10 10 9 9 8 8 8 8 8 7 7 7 7 6 6 6 6 6 6 5 5 5 5 5 5 5 4 4 4 4
8 9 8 9 10 9 10 11 11 11 11 10 10 9 9 9 9 8 8 8 8 7 7 7 7 6 6 6 6 6 6 5 5 5 5 5 5 5 5 4 4 4 4 4